Theta_e
317 317 317 317 317 317 316 316 314 311 313 316 316 317 317 318 319 319 318 317 317 318 318 317 316 317 317 317 315 316 315 317 325 329 327 324 328 334 336 338 340 344 343 350 359 359 359 359 360 359 358 360 360 363 362 362 364 364 369 360 352 359 360 360 366 362 364 370 368 366 366 365 364 362 361 361 361 362 362 362 362 361 361 359 358 355 353 349
316 316 316 316 316 316 316 315 313 311 313 316 316 317 317 318 318 318 319 318 317 317 318 317 316 318 317 316 316 316 316 321 328 327 326 327 325 326 329 332 334 341 345 351 358 358 358 356 357 358 358 362 361 362 362 363 366 366 368 357 354 364 364 362 365 362 365 369 367 367 366 363 364 364 362 364 365 362 364 365 364 363 362 360 357 354 352 348
316 315 315 315 316 316 315 315 313 311 314 316 317 318 317 317 316 317 318 317 316 317 317 317 317 318 316 316 317 317 321 328 330 327 328 327 324 323 323 325 328 335 344 352 356 358 357 356 357 356 358 362 361 361 364 364 365 366 364 359 358 360 361 362 365 363 363 366 368 367 365 364 364 363 362 364 365 364 366 365 364 365 364 361 356 353 351 348
315 315 315 315 315 315 315 314 312 312 315 316 317 318 316 315 315 317 318 316 315 316 317 317 318 317 316 317 317 319 326 332 330 332 334 328 324 323 320 322 324 332 344 352 356 357 356 355 355 355 358 364 362 361 364 361 361 362 361 360 358 355 358 362 365 364 361 364 368 367 365 365 363 362 361 363 368 370 369 364 363 363 363 360 355 352 351 348
314 315 315 315 315 315 314 313 312 314 316 316 318 318 316 315 315 317 318 316 314 315 317 317 317 317 316 317 318 323 329 331 331 334 331 326 324 322 318 319 321 333 346 352 354 354 354 354 353 355 358 364 364 361 359 356 357 359 359 359 354 354 357 360 365 364 362 365 367 367 367 364 363 362 360 363 369 371 367 363 361 361 360 358 355 351 350 348
314 315 315 315 314 314 313 313 312 315 317 317 318 317 315 314 315 317 318 316 315 315 317 317 317 317 317 317 319 325 329 330 335 334 329 326 323 321 318 315 320 335 348 352 353 352 352 353 354 358 359 362 364 360 356 353 353 357 359 356 352 354 356 358 364 365 361 366 369 367 367 365 365 362 361 363 365 364 361 360 360 360 359 357 356 351 348 347
314 314 314 314 314 313 312 312 313 315 317 317 318 316 314 314 315 317 318 316 314 315 316 317 316 317 318 319 323 328 328 330 338 333 329 325 320 320 315 314 322 335 346 351 352 350 350 353 356 358 359 362 361 356 355 352 352 357 358 355 351 354 356 356 362 364 362 367 369 367 367 367 367 363 362 364 363 360 359 360 360 359 359 357 354 350 347 346
314 314 314 314 313 313 311 311 313 316 317 317 317 315 315 315 315 317 318 316 315 316 316 316 317 317 318 321 328 331 329 333 337 329 322 321 318 315 314 321 329 337 346 351 351 350 351 354 356 356 359 362 358 353 354 353 355 356 353 352 351 354 356 356 359 361 363 367 366 366 368 368 366 364 362 363 362 361 361 360 360 359 359 357 353 348 346 346
314 314 313 313 313 312 310 311 313 315 316 317 316 315 316 316 316 318 318 315 315 315 315 316 317 317 319 323 328 329 332 336 335 325 316 318 318 315 319 331 335 338 347 351 351 351 352 354 355 356 357 357 354 353 353 353 355 353 351 352 351 353 357 359 361 363 366 365 364 368 370 370 366 363 363 362 361 362 362 360 361 360 358 357 354 350 347 345
313 313 313 313 312 310 310 311 313 315 316 316 316 316 316 315 316 319 317 315 315 315 315 315 317 318 320 327 331 330 334 337 333 325 318 320 324 322 325 334 336 338 347 351 350 351 352 354 353 352 353 353 352 351 350 351 351 350 349 350 351 355 358 360 363 366 367 366 366 368 370 370 366 364 365 363 361 362 363 362 360 360 358 356 355 352 349 346
312 313 312 312 310 307 308 311 312 315 316 316 316 316 316 316 317 319 316 315 315 315 315 316 317 319 323 329 331 332 333 335 334 326 324 325 327 327 329 334 337 339 347 350 350 352 352 354 354 352 352 351 350 349 348 348 349 348 349 350 353 354 358 361 365 367 367 367 366 367 370 370 368 367 367 364 361 362 363 364 361 359 358 356 355 352 350 347
312 311 310 309 307 306 308 310 311 315 315 316 316 315 316 316 318 318 315 315 316 315 316 317 317 320 327 330 329 332 332 334 333 327 325 326 327 327 329 334 337 340 346 349 349 351 352 354 353 353 354 350 349 350 347 346 345 346 347 351 353 353 355 357 365 368 366 367 366 366 365 367 370 369 367 365 362 364 364 364 363 361 358 355 354 351 350 347
311 310 310 308 308 307 309 310 311 314 315 315 316 316 316 316 318 317 315 316 316 316 317 318 318 322 329 330 329 330 331 334 332 329 326 325 327 327 328 335 339 340 346 348 345 346 349 353 352 351 349 346 348 348 345 345 343 346 349 351 354 351 351 356 363 368 369 366 367 365 351 353 368 370 367 365 363 366 365 363 363 363 359 354 354 352 349 346
311 311 310 309 309 308 307 308 310 313 314 315 316 316 316 317 317 315 316 316 316 317 318 318 319 325 330 331 330 329 330 333 331 331 328 325 327 327 332 339 340 341 345 346 342 341 345 347 345 344 343 343 346 344 345 346 343 349 349 349 353 340 341 355 359 366 372 365 370 366 343 346 368 371 368 366 364 366 363 363 364 363 360 356 356 353 350 348
311 311 310 310 309 307 307 308 310 311 313 315 316 316 316 317 317 316 316 317 317 317 317 319 321 327 333 332 331 328 329 330 329 333 330 326 328 331 337 339 341 342 343 343 339 337 339 339 338 339 340 341 344 344 347 347 347 352 341 337 346 336 338 354 353 358 370 365 369 366 345 348 368 369 368 367 364 366 363 363 365 363 363 361 357 355 351 349
311 310 310 310 308 307 308 310 310 310 312 315 316 316 316 317 317 317 317 317 318 316 318 326 330 330 332 331 328 327 328 328 330 335 334 333 335 336 339 339 341 341 339 339 337 335 335 336 337 337 339 340 342 345 345 341 341 350 341 330 336 334 335 348 351 351 360 363 368 363 352 355 366 368 368 367 365 366 363 362 365 364 365 363 360 359 356 352
310 310 310 310 308 308 310 311 311 311 312 314 316 316 317 318 318 318 318 318 318 319 321 329 334 330 330 329 327 327 329 329 333 334 335 338 337 337 338 337 337 337 336 335 334 334 334 335 334 334 338 340 341 343 337 327 327 337 340 333 334 338 336 338 345 349 354 360 365 363 357 357 362 367 368 368 367 366 364 362 364 365 363 363 362 361 358 353
310 311 310 309 308 309 311 312 312 312 312 314 316 316 318 320 320 318 322 325 323 324 327 328 330 329 328 328 329 329 330 330 330 330 331 333 332 333 335 334 332 331 330 329 328 331 331 333 333 334 337 337 341 341 328 325 329 330 332 331 331 338 339 337 339 347 353 352 358 362 359 361 364 367 367 367 367 366 364 362 362 364 362 361 361 362 363 354
311 311 309 308 308 309 312 313 313 313 313 314 316 317 321 325 324 322 325 329 328 330 332 327 328 329 326 326 328 330 332 331 328 327 329 329 328 330 332 329 327 326 324 324 325 327 329 331 330 330 332 335 341 341 334 335 340 338 337 335 330 329 334 341 341 343 347 344 354 361 356 364 369 366 367 366 367 366 363 363 362 362 362 362 362 364 368 361
310 310 309 308 309 310 313 314 314 314 314 315 317 320 326 331 333 331 329 329 330 331 331 325 325 327 327 327 328 332 332 330 327 326 327 327 327 328 327 326 325 324 323 322 324 326 328 329 328 329 331 335 340 341 341 342 344 343 342 337 333 328 328 340 343 340 342 340 347 358 356 364 370 365 367 365 367 367 364 364 362 361 362 363 362 363 366 362
310 309 309 309 310 312 313 315 314 315 315 316 317 323 327 330 333 333 330 330 332 332 329 326 323 326 329 330 332 333 331 329 328 327 327 326 326 326 324 324 324 323 323 323 323 326 328 326 327 332 333 335 339 342 343 342 344 342 338 333 330 329 329 339 342 339 344 338 340 355 354 359 369 365 365 365 367 367 364 363 362 363 362 362 362 362 363 362
309 309 310 309 311 313 314 315 315 315 315 316 319 324 325 328 328 328 328 328 331 330 329 327 324 325 330 332 332 331 329 329 329 329 328 326 326 326 324 323 323 323 323 322 323 326 327 325 328 333 333 336 340 343 342 341 342 339 337 330 324 328 332 336 340 340 341 337 339 352 353 355 367 366 364 366 366 365 363 362 362 362 362 361 362 362 362 361
310 310 310 310 312 313 314 315 315 315 315 317 323 325 326 328 327 328 328 328 331 330 326 326 324 325 328 330 330 329 329 328 329 330 329 327 326 326 325 324 323 323 323 322 321 321 323 328 331 331 333 339 340 340 341 337 336 336 333 325 321 330 329 323 332 341 340 338 338 345 353 359 365 365 366 365 363 366 364 362 362 363 364 362 360 360 360 360
311 311 311 312 312 313 315 315 315 315 316 318 321 323 325 327 327 328 328 329 332 330 326 325 324 325 326 328 328 328 329 328 329 331 329 327 327 326 325 326 323 322 323 323 322 321 325 332 334 333 336 339 338 337 336 331 328 331 333 327 324 330 329 324 332 338 335 337 339 340 341 347 360 364 367 365 362 365 362 360 362 362 361 359 359 359 359 359
311 311 311 312 313 314 314 315 316 317 320 322 323 324 325 326 328 328 329 331 331 329 326 325 323 324 325 328 327 326 328 330 329 331 331 327 327 326 325 326 324 322 323 322 322 322 325 331 334 336 337 338 336 332 332 329 322 325 332 335 332 333 333 332 334 332 324 324 336 339 326 331 353 358 362 365 365 364 360 360 361 359 359 359 360 359 358 360
311 311 312 311 313 314 315 320 324 323 325 326 328 328 326 327 329 328 331 330 325 326 326 323 324 325 326 328 327 325 326 330 330 331 332 328 327 327 324 325 325 323 324 323 323 323 325 329 333 337 337 337 336 330 330 331 323 319 329 336 336 336 334 331 330 325 316 317 335 343 325 324 341 351 361 365 365 367 362 362 361 359 362 362 362 360 358 359
310 311 311 311 313 313 316 324 326 325 327 328 328 328 327 329 330 329 331 324 318 324 325 322 324 325 327 327 325 326 324 327 331 331 331 328 327 326 324 325 324 322 325 325 321 322 328 329 330 337 337 335 333 329 331 333 324 320 330 335 335 334 332 331 329 323 320 323 332 339 329 323 327 342 361 362 359 368 367 365 364 361 360 359 360 362 360 359
311 312 311 312 313 312 315 319 321 324 328 329 328 327 327 329 329 331 331 320 319 326 325 322 326 325 327 327 325 327 327 328 330 330 330 327 325 325 324 325 326 324 326 327 319 323 331 330 330 336 335 332 331 331 334 332 327 326 333 335 333 334 333 333 329 322 324 323 318 326 328 321 322 337 355 357 354 363 367 366 368 364 360 357 358 359 359 359
311 311 311 312 314 314 314 313 317 324 326 327 326 327 328 330 330 332 330 322 321 326 327 325 327 327 327 326 325 329 330 328 329 329 328 326 325 324 324 325 328 327 326 327 325 328 331 330 331 333 334 332 331 332 333 332 332 332 333 335 333 334 333 332 329 321 320 320 314 320 322 319 321 331 342 348 347 355 364 364 364 365 362 360 360 357 356 358
311 311 311 312 315 318 317 316 319 321 322 325 325 327 329 330 330 325 320 323 325 326 327 327 328 329 329 326 325 329 331 330 329 329 328 326 324 324 324 327 329 330 329 327 327 329 329 329 331 332 333 333 331 331 332 333 335 333 333 335 331 332 332 330 329 321 317 316 316 319 319 321 323 327 336 344 346 351 360 362 362 364 363 361 361 358 357 358
312 313 312 312 316 320 322 323 323 323 325 326 326 329 329 331 332 320 316 323 326 326 327 328 327 328 329 326 326 328 330 331 331 329 328 327 324 323 325 328 328 329 328 326 325 328 328 329 331 331 331 331 331 331 333 334 334 331 334 332 323 322 323 322 320 319 317 314 316 320 321 322 320 326 339 349 350 349 355 362 362 362 362 361 359 359 359 359
315 315 315 315 316 318 322 325 326 326 327 328 328 330 331 329 325 319 321 322 320 324 328 328 327 328 327 327 328 328 330 332 331 330 330 326 324 324 325 327 326 321 317 318 321 324 327 330 330 330 330 330 329 329 330 332 332 331 329 322 315 314 315 315 315 316 316 315 317 322 324 323 322 331 344 349 349 349 354 359 360 357 359 360 358 356 357 358
317 317 317 318 317 317 319 322 325 326 327 329 328 330 334 327 318 318 324 322 319 325 329 326 326 328 327 326 328 327 329 332 331 329 329 327 325 324 324 327 329 323 317 318 317 315 319 326 328 328 328 328 328 324 321 323 327 328 322 316 313 313 314 316 316 317 317 316 319 323 324 322 322 333 348 351 348 350 352 355 356 354 355 358 357 354 355 356
317 317 317 317 317 317 317 318 323 326 328 329 329 332 334 327 322 320 322 324 325 326 327 327 327 327 327 327 328 328 327 330 331 329 328 326 324 324 324 325 328 329 326 321 317 315 312 317 324 326 325 327 328 324 322 324 327 329 328 324 316 313 314 314 314 315 317 317 319 322 325 320 319 331 345 349 349 348 348 350 353 352 354 357 355 353 353 354
319 317 317 319 318 316 317 317 321 326 327 329 332 334 329 323 323 321 322 326 327 327 328 328 328 326 325 328 330 329 326 327 329 328 328 326 323 324 326 325 326 331 329 320 318 318 311 313 325 328 325 328 327 326 327 327 325 328 331 325 315 317 318 313 312 314 316 317 319 321 325 327 329 338 341 344 347 348 346 348 351 353 355 356 353 353 353 351
323 321 319 322 323 320 318 317 321 325 327 330 332 331 329 327 327 325 325 326 326 328 326 324 326 323 319 323 328 329 327 327 329 327 326 327 326 326 328 329 328 329 329 324 321 318 310 312 326 329 325 328 327 326 328 326 323 327 325 318 320 328 324 312 311 314 314 315 319 321 324 328 329 335 340 346 348 346 347 349 350 353 355 355 355 354 354 352
327 327 325 328 328 325 322 319 324 326 327 331 332 331 334 335 334 330 328 326 325 328 325 319 321 321 315 317 324 327 327 326 327 325 322 324 325 328 330 331 331 328 330 328 325 324 316 313 324 329 325 327 328 326 329 330 330 325 319 320 327 330 327 318 312 313 315 317 321 320 320 321 320 326 339 349 348 345 347 348 350 352 353 355 355 354 354 355
328 332 332 331 329 327 323 322 326 327 327 332 334 336 337 336 335 331 328 327 325 327 324 318 320 323 318 316 319 325 326 322 322 324 322 321 322 327 331 331 331 331 331 328 325 329 324 313 320 330 328 327 329 326 324 328 333 328 324 329 327 318 317 317 313 313 316 320 322 318 319 321 318 322 335 343 346 346 345 347 349 349 350 352 353 353 355 358
328 333 334 332 328 326 325 324 326 327 329 332 335 338 336 333 333 331 329 329 326 325 324 321 322 323 322 320 320 325 325 320 321 323 321 321 321 326 329 329 331 331 330 330 328 330 330 317 315 327 330 327 328 324 319 321 329 330 328 331 329 320 318 317 316 316 315 320 322 318 322 326 325 330 338 339 343 346 344 348 349 346 349 353 351 351 355 361
330 333 332 330 328 327 326 325 326 328 331 334 335 337 335 331 331 329 329 329 327 325 326 326 324 322 324 325 323 325 325 324 324 323 323 324 322 324 327 327 329 331 328 329 329 329 331 322 313 322 328 323 322 323 322 322 325 324 321 321 322 321 322 321 320 318 319 323 323 321 324 326 331 340 345 342 344 345 346 350 350 348 350 351 352 353 356 360
332 334 332 328 328 327 326 326 328 329 332 335 335 335 334 332 330 329 328 329 329 327 328 329 326 324 325 326 324 326 326 326 326 325 325 326 322 321 327 326 328 330 328 327 330 328 328 324 315 315 318 316 319 328 329 327 328 326 321 320 320 319 318 316 316 318 320 323 321 322 323 324 332 341 344 342 344 344 346 348 348 350 350 348 349 350 354 358
332 334 332 328 327 327 327 327 329 331 333 334 335 334 334 333 331 330 329 329 330 330 329 329 327 327 328 327 327 327 326 326 327 325 324 326 324 323 327 328 326 328 328 326 328 328 328 327 318 313 316 321 326 330 328 327 330 330 327 326 326 323 316 311 312 318 322 322 321 320 321 326 337 343 341 342 344 344 345 345 348 351 349 350 352 352 354 355
335 334 330 328 328 327 328 331 332 333 334 334 334 333 332 332 331 331 329 329 330 330 329 330 328 327 329 327 328 329 327 325 326 326 326 327 326 326 327 327 326 328 328 325 325 327 329 327 318 314 321 325 328 329 329 330 330 327 327 329 327 326 322 318 320 324 323 321 320 322 324 331 338 343 343 342 343 343 344 344 347 349 349 351 355 359 362 358
335 333 329 329 329 327 329 334 337 336 335 335 335 334 332 331 331 331 329 328 329 330 329 330 329 328 328 328 329 329 326 323 324 327 328 327 326 327 326 326 328 328 326 325 327 325 324 324 320 316 317 318 320 323 324 326 328 325 327 331 329 329 329 327 325 325 324 322 322 325 326 331 338 344 343 342 343 344 344 344 346 348 350 352 356 360 362 361
334 335 331 330 329 328 330 333 335 337 336 336 338 335 332 332 330 331 331 329 329 330 330 330 329 329 329 328 329 329 328 325 324 326 328 327 327 326 326 328 328 326 326 333 336 328 323 326 323 316 314 315 315 316 317 321 324 325 327 329 331 331 329 326 320 317 320 323 322 321 323 329 339 344 341 342 345 342 343 346 348 350 353 356 360 361 364 368
336 337 334 332 331 329 330 331 332 335 336 338 340 336 333 333 331 331 331 329 329 330 329 330 329 329 329 329 329 329 330 328 326 327 327 328 327 326 328 328 325 331 340 340 335 329 327 329 326 320 318 318 318 320 326 327 322 321 324 326 329 332 331 328 319 315 320 321 318 322 324 324 333 341 342 345 346 343 345 350 352 354 354 356 360 361 368 376
337 338 337 337 337 332 332 333 333 333 337 342 343 339 335 333 330 331 331 328 330 330 329 329 329 329 328 329 329 328 329 330 329 329 329 329 329 327 328 327 327 339 348 338 328 330 328 324 326 325 322 326 329 328 331 331 324 321 323 324 329 331 331 326 318 319 324 319 318 332 334 324 329 342 344 344 345 345 349 352 352 352 352 356 361 362 364 368
337 338 337 337 339 339 338 337 335 332 338 345 346 340 336 334 330 332 332 329 329 330 330 329 328 329 328 329 329 327 328 329 328 329 331 329 329 329 328 328 329 335 337 329 327 332 328 321 326 328 324 328 332 331 332 332 328 328 328 326 328 330 329 324 321 327 326 317 321 339 338 328 334 344 343 344 345 345 349 352 350 349 353 359 363 361 356 356
336 337 337 337 338 340 340 338 336 333 339 347 349 340 335 335 331 332 333 333 332 331 330 330 328 329 330 329 331 330 329 327 325 329 332 329 329 329 327 327 328 329 329 327 329 331 326 323 329 328 323 326 330 331 332 331 328 328 329 329 331 330 331 329 327 332 332 324 327 336 334 335 342 345 343 345 344 344 346 350 350 351 354 356 356 353 352 354
332 333 335 336 336 338 336 334 336 334 338 347 347 338 334 335 334 336 336 334 335 333 330 331 331 330 331 332 334 336 335 333 331 331 333 333 333 331 329 330 329 327 328 328 330 331 325 324 331 329 320 320 327 330 330 330 328 325 326 331 333 331 332 333 332 334 332 329 333 335 334 339 346 344 346 346 346 348 350 352 354 354 354 353 352 352 355 358
328 330 333 334 337 339 337 336 339 338 335 340 340 336 337 337 334 339 338 333 333 334 330 331 332 331 332 333 335 336 335 335 334 332 332 336 336 333 335 337 331 328 330 330 330 332 328 325 331 328 317 315 324 327 326 328 326 321 321 326 329 328 329 331 334 337 333 331 335 335 335 344 351 346 344 347 352 355 354 354 355 353 353 355 355 354 356 358
327 328 331 333 338 341 338 338 341 340 335 335 337 338 341 339 332 336 336 333 332 332 331 332 331 331 333 333 334 333 332 332 333 331 331 334 334 332 334 335 330 329 331 331 330 332 331 329 327 324 317 317 325 327 324 324 320 316 320 326 329 331 333 334 337 342 343 340 337 335 340 350 352 348 347 353 357 356 355 354 354 355 356 356 354 353 352 354
Wind_Speed
19 19 19 19 19 19 19 19 19 19 19 19 20 21 20 20 21 21 20 18 17 17 15 14 9 5 4 5 6 8 9 7 9 11 13 13 10 2 3 8 5 4 6 9 11 9 8 9 9 5 6 6 3 4 4 4 4 1 2 4 5 6 8 9 10 8 6 6 6 6 10 13 11 6 4 5 8 9 8 6 6 3 1 8 14 18 20 22
19 19 19 19 19 19 19 20 20 19 18 19 20 20 20 20 21 22 21 17 17 16 14 13 9 5 5 5 6 8 10 10 12 16 16 15 13 10 7 6 6 5 8 11 12 10 7 5 5 3 5 5 4 4 2 2 3 1 3 4 5 5 6 8 8 8 7 6 6 7 11 13 12 10 6 7 10 8 9 7 7 7 5 11 17 18 20 22
19 19 19 19 20 20 20 20 19 19 19 19 19 20 20 20 21 22 21 18 17 16 13 12 8 5 5 5 6 6 10 12 13 15 16 17 16 15 12 9 8 7 10 13 12 10 7 7 5 4 5 4 5 6 3 3 3 1 3 3 6 6 6 8 8 7 7 7 6 7 10 12 10 9 5 8 11 8 8 8 9 11 10 13 15 16 20 23
19 18 19 19 20 20 20 20 19 19 18 19 19 19 19 20 21 22 21 18 16 15 13 11 8 5 5 6 5 6 9 11 7 3 10 18 17 15 14 12 10 9 12 13 12 10 10 10 7 5 5 4 5 6 4 4 3 2 4 4 7 8 7 8 8 7 6 7 7 6 9 11 10 9 6 8 9 5 5 7 10 14 14 14 15 16 19 21
19 19 19 19 20 20 20 20 18 18 18 19 19 19 19 20 21 22 21 17 15 15 12 9 7 5 5 5 3 6 8 5 2 7 9 15 14 12 12 13 12 11 12 13 12 10 10 11 7 5 4 4 5 5 5 5 4 2 5 6 8 9 8 7 7 5 4 5 7 7 8 8 11 10 6 7 5 4 5 7 11 14 14 15 16 17 18 19
19 19 19 19 20 20 20 19 18 18 18 18 19 19 19 20 21 22 20 16 14 14 11 8 6 6 5 4 3 5 7 2 5 6 6 9 12 12 12 13 12 11 12 12 11 8 8 9 6 4 4 5 5 6 6 6 5 2 5 6 8 8 7 7 5 3 3 6 7 6 6 6 12 10 6 6 4 4 6 9 11 12 14 16 16 16 17 19
19 19 19 20 20 20 20 19 18 18 18 18 19 19 19 20 21 22 19 14 13 13 10 7 5 7 6 4 4 4 9 5 5 5 2 6 11 12 12 12 11 11 12 13 11 7 8 7 4 3 5 5 5 8 6 8 7 4 4 5 8 7 7 8 5 4 5 7 6 5 5 6 11 9 5 6 5 6 7 9 10 11 14 15 16 16 17 19
19 20 20 20 20 20 20 19 18 18 18 18 18 18 20 21 21 22 18 13 12 11 9 6 5 6 7 6 5 7 9 2 8 4 1 7 11 12 13 12 12 11 12 14 11 6 7 7 5 4 5 5 7 8 7 8 5 2 4 6 6 6 9 8 6 6 5 6 4 5 6 6 8 8 8 7 5 7 8 10 10 11 12 14 15 17 16 16
19 20 19 19 20 21 20 19 18 18 18 18 18 19 20 21 22 21 15 10 10 10 8 6 6 6 6 5 7 7 1 6 7 3 5 10 11 13 14 12 14 13 12 13 11 6 4 5 5 5 6 8 10 9 7 7 3 2 6 7 5 6 9 7 7 6 5 4 2 3 5 5 5 7 10 9 7 8 10 11 11 11 12 13 14 15 16 16
19 19 19 20 20 21 20 19 19 18 17 18 18 19 20 20 22 19 12 8 8 8 7 6 6 5 5 6 8 5 4 8 6 5 9 12 13 14 15 14 14 14 13 11 10 7 5 6 6 6 9 9 9 8 9 8 5 5 6 6 4 6 6 7 8 6 4 4 4 3 3 5 4 3 6 11 9 9 11 10 12 12 12 13 12 13 14 15
20 19 20 21 22 22 20 19 19 18 17 18 18 19 20 20 21 17 9 7 7 7 6 7 6 5 7 9 8 3 4 4 6 10 12 14 14 15 16 14 13 14 13 10 9 7 5 8 7 7 7 6 8 10 10 8 6 7 8 6 2 4 4 8 9 6 3 2 4 2 1 3 3 3 6 12 11 10 12 10 11 11 11 13 13 13 12 12
21 21 22 23 23 22 20 19 19 18 17 17 18 19 19 20 19 13 7 6 6 5 5 6 5 6 8 9 9 3 4 1 5 9 11 13 13 14 14 13 13 14 12 11 8 6 8 9 8 9 8 8 10 8 7 7 8 9 8 6 1 1 1 8 9 8 2 1 3 2 2 3 2 5 8 11 12 11 11 10 9 8 10 12 12 12 10 11
21 21 22 22 22 21 20 19 19 18 17 17 18 18 18 18 15 9 6 6 5 5 6 6 5 5 8 7 4 2 2 1 4 7 10 11 11 12 13 12 12 13 15 13 6 4 8 8 7 12 11 11 9 8 9 10 11 10 7 5 1 2 2 7 9 10 5 4 6 3 1 3 2 8 10 9 11 11 10 10 9 7 9 10 10 11 11 12
20 20 21 22 22 22 21 20 19 18 17 17 17 18 18 16 11 8 6 5 4 5 5 6 6 5 7 6 1 4 3 1 4 9 10 11 12 12 13 10 11 13 13 12 8 7 5 5 9 12 10 11 10 10 12 10 10 8 5 4 0 4 2 4 7 10 7 6 9 4 2 4 3 7 10 9 11 10 10 10 8 7 9 9 9 10 11 11
20 21 22 23 24 23 22 20 19 18 17 17 17 17 17 13 9 8 7 6 5 6 6 7 7 5 7 7 3 4 7 6 8 11 11 13 12 11 12 10 11 10 7 9 8 6 6 8 10 9 9 12 12 11 10 8 7 5 4 3 0 3 3 2 6 10 8 8 11 7 2 3 2 7 9 9 10 9 8 10 9 8 8 7 8 10 11 11
22 23 23 24 25 24 21 19 18 18 17 17 17 17 15 12 9 8 8 7 5 6 5 6 9 10 7 2 5 6 9 10 10 11 10 11 11 9 10 9 9 8 5 7 9 7 9 10 10 9 10 11 9 8 8 6 4 2 3 3 2 4 2 3 8 11 12 10 11 8 2 1 2 8 11 10 11 10 7 9 9 8 7 5 5 7 8 10
24 24 24 25 25 23 20 19 18 18 17 17 17 16 12 10 9 9 8 7 6 6 7 9 8 9 7 2 4 8 10 9 9 10 10 10 11 9 9 8 8 8 7 9 11 10 10 9 7 8 9 8 8 8 7 5 3 0 2 3 4 6 3 4 7 10 15 12 11 9 4 0 4 9 11 11 12 11 8 9 9 8 6 4 2 6 8 10
24 24 25 25 24 22 20 19 18 18 18 17 17 15 12 10 10 9 8 5 4 6 10 12 9 6 7 7 8 9 10 10 10 10 11 11 10 9 10 8 7 8 8 9 10 10 9 7 7 8 7 8 8 6 6 4 4 2 3 3 4 5 8 8 5 7 16 12 10 11 6 3 7 9 11 10 11 11 9 8 9 8 6 5 3 6 6 8
24 25 26 25 23 21 19 18 17 17 18 18 16 14 12 9 8 8 9 7 4 5 4 5 9 3 1 9 10 9 12 11 10 10 10 9 7 8 10 9 7 8 9 7 8 10 8 6 6 7 6 8 9 9 9 5 5 5 4 5 6 5 7 7 5 4 10 7 8 12 6 7 10 9 11 11 10 10 9 8 6 6 6 6 5 5 2 5
25 25 25 24 22 21 19 17 16 16 17 18 16 11 7 5 4 4 7 10 10 10 7 5 14 5 2 9 8 11 13 10 10 10 10 10 8 9 10 9 8 8 9 7 7 8 7 7 7 7 9 10 8 7 7 4 4 8 7 6 8 8 6 4 4 3 3 3 5 11 8 10 11 9 10 11 10 10 8 8 7 7 8 8 7 5 3 5
26 25 24 23 22 21 18 17 16 15 15 15 13 8 6 5 3 1 2 9 14 16 13 9 13 6 2 7 11 11 10 9 10 10 11 11 10 9 8 9 8 7 9 11 8 7 6 8 8 9 13 10 5 5 6 6 6 10 8 6 8 8 6 5 5 3 2 3 3 12 10 10 12 11 10 9 10 11 9 8 8 9 8 7 7 7 6 4
25 24 24 23 22 20 18 17 15 15 13 10 8 9 8 8 7 6 6 7 11 16 14 11 10 5 1 4 9 10 8 9 11 11 11 11 11 8 8 9 9 7 8 10 9 6 7 8 10 14 14 7 4 6 7 8 10 9 8 7 7 5 6 6 5 3 2 3 1 9 10 9 12 12 11 11 9 8 9 8 7 9 8 7 8 8 7 5
24 23 24 23 22 20 18 17 14 14 13 9 10 13 11 9 8 9 8 8 7 12 12 10 9 8 8 5 7 12 11 9 11 11 13 11 10 9 7 8 9 9 9 10 8 7 7 7 11 14 8 3 3 7 8 9 8 8 8 8 6 5 6 5 2 1 3 4 4 2 6 7 9 10 11 12 8 3 3 4 3 4 5 7 9 9 9 9
24 23 24 22 22 19 18 18 14 14 13 13 15 17 15 11 10 10 7 7 6 9 11 10 9 9 10 6 8 13 12 8 9 11 14 11 10 8 8 8 9 10 9 10 11 12 10 3 3 7 2 4 7 9 9 8 7 8 10 8 8 9 8 7 4 5 7 7 6 2 3 6 7 8 9 10 8 4 2 3 3 2 2 5 8 11 12 11
24 23 23 22 21 18 18 17 12 10 9 12 17 17 14 10 8 9 6 7 5 7 9 10 9 9 10 8 8 10 11 9 9 11 14 13 12 8 7 7 7 9 10 13 12 11 13 8 4 4 2 6 9 8 10 8 6 8 10 10 11 12 10 10 9 8 7 5 1 2 3 3 6 6 6 8 11 10 7 8 8 6 6 7 9 11 12 11
25 23 22 21 20 18 14 9 5 7 8 13 11 8 8 6 6 7 5 5 5 7 9 10 8 7 11 9 9 10 11 9 8 12 15 14 13 8 7 6 6 9 9 10 9 6 10 11 7 6 6 9 8 8 11 9 7 6 4 7 11 9 6 10 12 9 6 5 1 5 6 1 5 5 5 8 10 13 11 12 11 8 7 7 8 10 11 12
26 23 21 19 18 16 9 5 7 10 7 5 2 1 2 3 5 5 5 5 5 7 9 9 6 8 10 9 11 10 6 7 10 12 13 13 12 9 8 6 6 8 7 6 6 5 8 12 9 7 7 9 8 7 9 9 8 5 3 6 11 7 5 11 13 8 7 7 4 7 7 2 3 5 7 6 6 11 12 12 13 12 9 9 9 10 11 12
26 22 20 19 16 12 9 11 13 10 5 6 4 2 2 3 4 4 5 4 4 6 8 7 5 6 9 9 13 9 2 8 10 10 13 13 12 9 8 9 8 8 7 6 6 5 8 12 13 8 5 5 7 9 10 9 8 8 5 6 9 9 9 12 10 8 7 7 6 5 6 3 2 5 7 5 4 8 10 10 13 15 16 15 13 10 9 11
26 22 20 18 14 9 10 13 12 11 8 11 8 5 5 5 5 4 5 3 3 4 4 6 5 7 9 10 14 10 5 5 4 7 13 12 12 10 6 7 10 9 9 9 10 4 4 6 10 8 6 6 8 11 10 6 6 11 10 8 7 9 10 10 8 8 7 6 6 6 7 3 2 2 3 3 3 6 7 8 10 13 16 17 14 11 10 11
25 21 17 14 9 5 6 12 15 12 9 11 10 8 7 7 4 5 6 3 6 6 5 6 7 10 11 11 12 11 9 7 2 7 11 9 11 12 7 6 8 9 7 10 13 10 5 7 8 6 7 8 10 11 8 4 6 11 10 8 9 10 10 8 7 6 6 6 7 8 8 2 3 2 3 1 3 4 5 7 9 12 14 14 14 14 14 12
24 19 15 12 7 3 4 7 7 7 7 10 10 9 8 5 4 7 5 2 4 8 8 8 10 12 13 13 11 10 11 9 7 8 8 6 9 10 7 6 5 6 7 7 10 12 10 8 5 5 7 10 11 9 7 5 7 9 7 7 8 8 7 6 5 5 5 6 6 6 6 3 2 2 6 2 4 4 7 8 10 13 13 12 13 14 15 14
22 17 13 13 12 11 10 5 3 6 7 9 9 7 6 5 5 7 3 2 4 7 8 10 11 12 14 14 11 11 11 9 10 9 8 7 8 8 9 8 5 5 7 6 8 9 9 10 9 8 9 11 10 7 6 7 8 7 6 7 7 6 3 3 4 4 5 6 6 6 5 4 2 3 8 5 4 5 8 9 10 11 12 12 11 11 13 13
18 13 11 12 13 16 17 9 6 9 9 9 8 6 5 5 7 8 6 3 5 9 8 11 12 12 14 13 10 11 10 8 10 10 9 9 8 9 12 12 10 8 6 6 7 8 8 11 13 11 9 11 10 8 7 7 7 8 8 6 6 5 3 3 4 4 6 6 6 8 4 3 2 5 11 11 9 7 7 9 10 10 10 11 10 10 11 13
12 9 7 7 10 14 15 12 8 9 9 8 7 5 6 6 5 8 8 3 5 8 9 11 13 13 13 12 9 10 8 7 11 10 10 10 8 8 11 12 15 12 6 7 7 6 8 9 13 13 8 11 13 13 12 8 5 8 8 6 7 7 4 4 4 3 5 4 5 8 3 1 1 3 7 11 13 9 7 8 10 8 9 10 8 7 8 10
6 4 4 5 8 10 12 12 9 7 8 7 6 5 7 5 3 6 5 4 5 7 11 12 12 13 11 11 11 11 9 6 10 9 8 9 8 8 9 10 13 12 8 7 5 5 9 5 11 15 10 11 14 14 13 12 8 5 6 7 9 6 3 5 5 3 5 5 3 3 1 1 2 4 5 10 16 12 9 9 9 9 10 9 8 7 7 7
2 1 4 7 9 7 9 11 8 7 8 6 5 6 6 4 2 3 2 3 5 7 11 11 10 10 9 8 10 11 10 6 8 9 7 9 9 9 9 8 11 12 10 7 4 4 6 2 13 14 11 13 12 11 11 10 6 4 5 7 5 3 4 8 6 2 5 6 2 3 2 2 3 6 5 11 15 9 10 10 8 9 10 9 8 6 5 5
3 4 6 9 11 9 10 11 8 8 7 5 6 6 4 6 6 3 2 2 6 9 9 9 8 8 7 6 7 10 9 6 7 8 6 8 9 9 10 8 8 12 12 9 7 6 5 1 10 10 8 11 10 11 12 11 8 6 4 3 4 4 6 6 2 2 5 3 4 1 2 1 3 3 5 12 12 7 8 9 9 10 9 7 6 5 5 6
7 9 8 8 11 11 11 12 10 8 6 5 8 8 5 6 8 5 3 2 6 10 8 7 7 8 8 7 6 10 10 7 7 7 7 7 5 7 10 8 8 10 11 9 6 6 6 4 6 8 4 7 10 10 11 12 12 9 4 4 4 5 4 3 2 4 4 1 2 3 3 1 3 3 7 6 9 9 8 9 8 7 7 7 7 6 7 7
9 10 5 8 12 12 12 12 9 7 5 7 6 5 6 8 9 7 4 4 5 9 9 6 7 7 9 6 9 11 11 8 7 6 5 4 4 7 9 6 8 9 8 8 7 6 6 4 2 7 7 6 8 7 7 8 8 7 8 5 4 3 3 2 4 5 3 1 2 3 3 1 5 2 5 2 5 9 8 10 9 4 5 6 6 7 7 6
8 7 3 11 12 13 14 11 8 5 6 8 5 6 10 8 7 5 4 7 6 6 5 3 8 7 8 5 9 9 9 7 6 5 3 2 3 7 7 5 7 9 8 10 8 6 4 2 3 3 9 7 5 6 6 7 7 5 6 6 5 3 2 2 4 4 1 2 0 2 1 1 5 3 7 4 8 10 10 10 8 7 6 5 4 5 6 5
7 5 4 11 12 15 14 8 6 5 6 7 7 10 10 5 1 4 6 9 7 2 6 7 4 7 5 5 7 8 7 6 6 6 4 5 6 5 7 6 6 7 8 9 8 6 4 3 4 3 8 9 7 8 9 12 10 8 8 9 7 5 5 4 4 3 1 1 1 2 2 1 5 4 7 8 8 12 13 9 7 9 8 6 6 7 6 6
6 4 6 14 16 17 11 5 6 6 7 6 6 10 7 3 4 3 7 7 6 4 5 6 5 6 4 3 5 8 7 5 4 4 3 6 6 2 6 6 7 7 8 7 8 7 4 3 4 4 5 6 6 11 12 15 12 8 7 7 6 6 6 5 3 1 3 2 2 2 2 2 2 3 7 9 9 13 13 7 9 12 10 9 10 8 5 4
4 1 7 15 16 15 8 6 6 6 7 7 8 11 8 4 5 4 6 8 4 4 5 3 2 4 4 4 4 6 5 3 4 5 6 5 5 4 4 5 8 7 7 7 7 5 2 2 4 4 6 7 2 5 6 8 8 7 4 5 8 6 5 5 3 3 4 2 1 1 2 1 4 6 8 8 9 12 10 8 11 12 10 10 11 10 9 8
3 3 5 12 14 12 7 5 3 2 5 8 9 10 9 6 6 5 7 8 5 4 4 2 1 2 3 4 4 5 4 3 4 5 5 2 8 6 3 6 8 7 6 6 5 4 3 2 2 3 6 5 3 2 4 5 6 5 2 4 8 6 5 5 5 3 2 4 6 4 1 2 1 2 5 6 7 8 8 8 11 12 11 11 11 11 11 12
5 4 3 8 12 10 8 6 4 3 4 7 10 10 8 6 5 4 5 8 6 4 3 2 3 2 3 4 4 5 5 3 3 3 3 1 7 6 4 5 8 6 4 2 3 1 5 3 3 3 4 4 2 2 3 3 5 5 3 5 6 7 7 5 4 5 2 3 6 4 2 5 6 5 6 6 6 6 7 10 13 15 13 11 9 8 8 9
3 2 1 4 7 7 7 7 7 7 5 5 7 7 7 6 4 5 5 6 5 5 3 4 5 2 2 5 4 5 7 3 1 2 4 3 5 5 6 5 5 4 8 7 5 3 4 3 5 5 3 4 4 3 4 4 5 4 4 5 6 8 7 5 6 4 1 1 3 4 4 6 6 6 6 7 7 6 8 13 15 13 11 9 7 5 4 4
2 1 2 1 3 4 6 6 7 6 2 4 2 5 9 7 9 5 4 3 6 6 4 5 5 3 3 5 3 3 4 3 3 2 2 4 5 4 6 5 1 9 7 1 2 4 3 2 5 7 7 8 6 5 5 6 6 6 6 7 8 8 7 7 6 2 0 2 0 2 5 6 4 2 6 9 7 7 12 14 13 10 9 7 4 2 3 4
2 1 2 4 4 3 4 3 5 5 4 5 4 10 10 3 6 3 1 5 5 3 4 3 6 5 5 5 3 4 4 4 6 4 2 4 6 5 5 6 4 9 2 5 5 3 5 2 4 7 9 10 9 8 7 7 8 6 6 8 8 8 8 7 7 6 5 4 2 5 7 6 6 5 8 8 6 8 14 13 10 10 9 5 4 5 4 2
3 1 0 3 4 5 7 5 7 8 6 9 4 10 7 1 3 2 7 1 4 8 3 4 3 4 6 6 1 1 1 1 4 4 2 3 5 6 6 6 5 9 5 7 7 4 5 1 3 7 8 9 10 11 10 9 9 7 7 7 8 8 6 5 8 6 6 7 4 6 7 8 8 8 11 9 7 10 13 11 11 12 10 8 8 8 7 7
5 3 3 5 5 7 9 5 8 9 6 11 6 6 7 4 6 4 6 4 1 6 7 6 3 6 7 7 5 5 1 6 3 3 4 7 3 1 3 2 3 8 7 5 4 5 3 1 3 6 7 7 9 11 10 9 8 8 7 7 8 8 4 2 5 6 6 9 9 7 9 9 7 9 11 9 10 12 13 12 13 12 11 11 10 10 10 9
9 8 7 6 5 6 7 2 5 8 1 4 5 2 5 9 6 10 6 8 4 1 4 4 6 6 5 5 6 7 1 4 0 5 7 6 3 2 2 2 4 5 7 3 2 4 4 3 3 4 5 5 6 9 10 9 9 10 9 8 9 11 6 1 2 6 7 7 11 12 9 4 3 6 10 12 15 17 15 14 11 8 10 11 11 11 10 10
12 10 9 7 5 6 6 2 4 8 1 2 6 5 4 8 4 12 2 6 3 5 7 10 8 6 2 4 6 7 5 7 7 4 4 6 9 6 5 5 6 2 3 4 4 4 4 4 4 3 3 5 8 9 8 7 8 8 7 6 8 8 4 2 6 10 10 8 7 7 5 3 3 2 7 13 17 16 12 9 6 6 8 9 9 10 10 11
Wind_Direction
349 348 348 348 347 347 346 346 346 346 346 345 345 345 344 344 345 346 343 342 343 344 343 341 341 346 328 313 310 311 314 306 294 259 234 238 234 235 193 199 224 220 191 205 227 235 223 233 235 251 277 274 288 275 287 258 249 344 287 321 13 26 19 22 25 36 49 46 67 98 98 106 123 128 144 132 109 114 114 94 98 107 140 139 144 157 162 154
346 346 346 346 345 345 344 343 344 344 344 343 342 343 343 343 345 345 342 341 342 344 344 342 347 344 322 312 314 322 326 309 281 261 241 236 234 238 231 219 243 224 202 214 228 235 233 252 240 242 266 286 302 260 278 247 213 249 293 342 22 28 26 27 30 41 52 52 50 75 99 111 126 135 156 138 121 122 113 113 123 126 143 141 148 164 165 156
345 344 343 344 343 343 342 341 342 342 342 340 339 340 341 343 344 344 342 340 342 346 343 341 347 337 323 315 322 342 334 306 271 255 237 227 227 232 234 233 242 235 218 220 234 244 251 276 269 253 261 288 290 254 245 236 212 249 290 356 16 17 24 32 34 37 55 71 59 66 94 104 122 130 140 134 132 141 128 136 144 142 154 149 153 168 166 159
344 343 343 342 341 341 340 340 340 340 340 337 337 338 340 342 342 343 342 340 342 346 342 341 342 331 327 318 332 358 324 290 267 232 199 210 218 224 230 229 233 240 229 230 252 264 271 276 268 268 282 290 279 274 276 257 237 311 323 343 8 11 14 30 39 31 45 70 69 75 87 102 124 112 111 134 134 142 148 162 155 149 156 154 158 170 168 162
344 343 342 341 340 339 338 339 339 339 337 335 335 336 339 340 339 341 341 339 341 344 341 337 333 323 321 319 343 346 307 275 100 89 149 193 210 218 224 220 224 232 225 235 256 267 275 274 274 287 304 305 291 296 303 284 266 323 326 328 6 14 5 25 51 31 26 67 65 71 80 104 113 97 119 154 146 153 174 177 158 153 158 159 166 172 170 162
343 342 341 340 339 337 337 337 338 336 334 333 334 335 338 338 337 339 339 339 340 341 339 332 327 318 318 322 332 315 282 285 89 113 150 184 204 209 214 212 215 222 221 236 253 260 265 266 281 304 297 295 298 297 306 312 307 325 312 324 7 13 2 16 62 49 18 58 58 67 74 90 98 102 148 149 140 159 169 169 158 156 156 164 173 175 172 162
342 342 340 339 337 335 335 335 335 334 333 333 333 335 336 334 335 336 337 337 337 340 336 327 317 314 322 318 305 267 254 267 98 130 183 186 195 199 201 199 204 217 226 236 245 254 265 269 289 305 289 293 300 294 313 329 315 302 301 340 6 8 14 18 59 75 52 60 58 76 78 74 91 112 144 119 133 156 161 162 159 158 156 169 178 175 173 165
341 340 338 338 336 334 334 334 334 332 332 333 332 334 332 332 332 333 335 333 336 340 330 318 307 313 336 334 289 247 245 221 109 126 179 162 176 184 184 186 199 214 227 238 241 242 263 270 272 288 294 299 297 296 320 324 307 291 320 351 1 16 36 31 50 63 63 82 78 75 73 57 77 104 115 114 153 159 155 157 159 163 161 178 183 174 172 167
339 338 336 336 333 331 332 332 331 330 331 331 331 331 329 330 331 332 333 330 338 338 325 310 297 309 337 327 284 261 237 96 110 130 133 149 168 173 174 183 197 209 223 237 248 250 259 278 291 308 296 290 292 300 312 303 319 356 328 341 360 37 47 40 60 62 48 77 70 60 82 75 79 100 113 128 165 162 151 152 160 167 170 184 186 173 169 170
336 335 334 333 331 329 329 329 328 328 330 329 328 328 328 330 330 331 329 330 340 331 321 303 297 317 309 280 267 265 83 97 121 136 139 151 163 170 183 192 193 208 226 231 243 249 246 271 308 314 288 286 292 299 299 293 323 329 306 318 359 55 66 68 76 72 49 71 64 29 65 79 88 83 112 133 152 159 147 153 165 167 176 185 183 173 170 173
335 332 329 327 327 328 328 328 326 326 328 327 326 326 327 329 328 328 323 329 337 325 317 297 300 319 296 278 266 273 73 109 135 142 151 153 163 178 192 199 194 208 230 237 239 242 253 272 296 300 283 298 303 297 294 292 302 290 284 295 32 72 80 94 94 89 56 75 83 67 97 99 115 69 100 132 148 161 151 157 169 168 175 182 181 173 174 178
331 328 325 323 325 327 327 327 325 323 326 325 323 324 326 328 327 325 317 326 330 314 305 294 312 324 298 275 251 258 51 148 152 149 161 161 173 187 195 203 203 211 231 240 237 233 238 253 275 279 279 298 303 304 310 310 293 277 283 290 125 133 156 108 116 121 105 256 141 188 197 142 158 95 105 135 147 153 150 155 164 172 175 177 180 173 178 183
331 329 327 326 327 328 327 327 323 321 324 323 321 322 324 326 324 317 311 321 319 303 299 299 314 307 285 275 224 168 60 172 166 162 170 174 183 192 201 209 209 218 233 240 274 291 231 224 256 271 280 288 290 294 300 300 284 273 273 274 252 263 228 112 125 133 137 198 165 210 296 88 102 105 117 142 146 143 150 160 162 172 176 177 182 175 182 186
334 332 331 330 330 329 327 324 321 319 322 320 317 319 321 323 319 308 304 306 306 289 285 294 302 288 265 267 143 157 204 192 187 186 177 182 188 192 203 214 216 223 245 261 307 330 267 260 270 271 274 270 269 278 283 282 272 269 257 244 288 305 285 129 153 141 135 171 166 214 329 70 88 120 130 147 153 151 155 163 162 171 177 179 184 181 184 185
333 332 331 329 328 327 324 321 319 317 319 316 314 316 317 316 307 297 295 296 295 280 286 289 267 252 261 247 174 173 193 192 203 193 181 188 191 191 199 209 216 221 254 272 285 301 282 279 274 273 274 266 264 266 269 273 270 269 267 250 88 293 290 262 213 165 149 174 180 209 303 63 115 142 146 153 156 162 166 163 167 179 182 182 189 191 185 181
332 331 328 327 325 324 322 321 318 317 318 313 311 314 313 310 297 289 291 290 288 276 282 281 231 218 268 285 133 164 189 195 194 180 182 195 196 196 195 197 210 219 230 247 260 275 271 266 266 269 275 279 273 263 263 271 276 292 290 293 313 291 308 298 244 189 158 168 184 207 269 33 150 151 154 162 161 168 175 167 173 181 186 191 204 212 191 180
331 329 325 324 323 322 323 321 318 317 315 311 311 311 309 305 289 283 288 286 290 272 255 274 260 228 256 306 149 191 193 180 165 168 186 196 200 192 183 193 206 216 222 234 246 254 255 256 264 260 256 259 258 263 265 264 285 257 244 263 273 283 273 260 251 176 157 173 182 194 238 66 141 152 156 168 169 171 174 172 180 177 187 197 222 247 208 182
330 327 323 322 322 322 322 320 319 317 312 310 311 308 307 304 287 280 281 280 283 256 249 260 267 265 245 221 214 204 175 156 155 173 184 188 205 191 183 207 211 215 226 235 238 239 243 241 248 258 253 243 242 254 259 275 317 257 226 271 261 236 220 232 268 162 172 198 178 173 210 141 142 156 160 173 174 177 176 173 182 173 183 189 202 254 228 191
328 325 324 324 322 321 321 320 318 317 313 309 311 310 305 302 284 265 250 241 212 226 265 213 209 282 85 186 203 180 151 148 160 176 179 182 206 192 191 212 212 219 230 228 216 217 233 238 235 250 254 247 233 229 248 286 332 297 274 284 282 257 224 232 284 191 186 218 174 169 186 140 151 167 166 172 175 187 180 161 175 179 187 190 204 250 276 229
326 325 325 323 322 321 320 318 314 316 317 316 326 323 292 278 256 215 210 222 224 247 292 185 195 242 88 156 153 134 139 157 176 181 180 181 191 188 191 209 211 218 233 236 213 199 224 246 237 238 239 246 247 240 271 326 327 302 299 280 278 280 274 270 275 227 198 277 165 156 155 147 160 178 173 166 169 189 187 169 176 186 194 189 195 216 195 243
326 325 323 321 321 320 317 316 312 313 317 320 329 310 280 326 335 19 223 228 223 236 260 223 208 262 6 124 123 131 149 176 191 182 176 181 190 187 179 201 215 211 224 242 238 197 208 245 247 250 248 256 310 325 329 329 282 285 294 283 276 271 283 285 262 235 219 292 123 129 141 154 159 175 181 168 174 186 183 187 189 182 193 188 189 207 195 235
326 325 323 320 319 319 316 313 308 310 313 309 298 260 270 335 345 325 314 270 227 220 236 233 224 250 278 132 144 176 191 184 190 179 171 184 196 192 173 192 222 220 211 232 245 211 204 242 244 246 255 267 336 318 306 297 277 280 284 274 273 283 300 277 251 239 215 269 122 132 136 143 151 164 173 173 189 190 167 182 195 182 191 195 195 204 199 219
327 325 323 321 319 319 313 309 309 306 296 269 251 245 266 319 333 315 300 286 251 207 212 223 224 211 198 204 176 193 206 189 189 177 169 193 209 208 197 197 223 232 216 214 231 233 215 225 229 235 261 319 310 277 271 275 265 260 264 270 274 269 282 280 232 229 268 277 275 164 118 132 149 150 160 172 185 199 160 167 181 175 182 197 203 202 201 204
328 324 321 320 317 316 313 311 303 287 270 246 246 251 271 300 312 315 301 278 257 196 198 202 213 213 199 202 179 196 218 200 192 176 165 198 217 211 221 220 224 231 229 219 222 243 251 278 246 235 290 324 289 278 262 264 263 247 244 259 278 274 286 314 326 319 301 274 256 242 126 140 150 150 162 167 159 170 228 200 175 190 195 208 214 206 203 201
328 324 319 318 316 314 316 311 289 269 245 232 247 250 259 278 295 314 311 273 237 180 189 190 203 214 189 180 174 198 226 209 198 177 165 203 218 201 222 233 236 230 226 226 224 241 260 279 280 248 274 267 270 273 255 253 264 258 244 236 251 272 303 323 309 301 295 277 264 274 267 141 139 159 164 157 150 155 188 198 181 193 211 206 207 206 206 203
329 324 319 317 314 314 317 309 285 287 251 231 245 241 235 262 301 307 292 263 220 162 170 180 184 178 170 175 175 196 223 210 194 169 164 205 224 220 232 217 220 238 236 235 232 235 253 257 242 233 271 269 262 262 254 259 269 268 276 262 254 261 298 299 287 283 280 289 158 214 254 154 144 176 167 167 155 146 174 193 170 169 210 213 198 197 204 202
327 322 318 313 310 315 313 303 316 306 265 221 230 183 221 293 318 299 268 249 212 163 159 167 164 167 172 172 177 201 220 163 154 158 167 200 218 224 243 227 207 232 255 267 248 219 234 256 245 218 253 264 254 247 240 247 260 263 27 328 294 303 304 276 276 280 287 296 251 226 258 273 157 161 154 163 145 143 174 189 166 160 185 215 215 196 195 200
325 320 314 304 299 297 276 290 309 293 296 25 21 300 336 315 291 272 257 248 174 151 154 146 131 172 175 167 188 206 112 128 153 164 174 192 209 211 225 249 258 236 225 247 256 194 190 242 247 223 231 247 248 260 250 230 239 265 320 345 308 304 295 281 283 282 278 285 279 274 280 266 107 116 143 151 147 163 184 189 178 168 169 191 210 200 194 200
325 317 307 297 294 283 260 273 280 265 298 345 333 312 320 284 267 246 257 260 158 157 157 143 144 180 171 170 199 201 145 176 201 160 169 182 210 227 238 262 277 262 221 224 247 216 151 259 263 242 236 239 243 260 267 240 229 267 305 337 301 276 273 270 271 275 278 283 280 278 274 262 87 97 143 153 180 193 198 194 191 180 171 179 186 190 202 203
324 313 301 294 289 284 256 250 255 268 299 308 305 310 291 265 250 224 227 211 177 167 144 154 174 182 174 175 197 202 190 198 143 148 170 179 203 229 269 280 275 276 242 223 242 253 279 298 298 278 255 257 256 263 289 306 271 281 299 305 279 261 257 253 250 267 278 273 268 268 276 314 93 95 76 101 237 210 196 193 188 185 180 176 171 177 192 194
322 308 291 269 236 217 252 235 248 297 307 291 292 292 269 240 231 239 216 156 171 156 148 167 173 173 180 185 187 199 202 174 143 175 185 181 198 210 236 241 239 260 246 225 243 255 250 240 256 266 254 269 275 277 300 300 277 284 282 274 276 261 245 245 248 251 255 267 283 292 306 28 77 88 87 122 244 183 182 189 184 182 178 177 175 175 181 182
320 303 276 245 213 208 228 220 32 338 305 293 286 273 255 210 219 244 214 162 180 167 167 171 171 173 182 194 186 186 201 172 163 201 196 186 201 198 214 222 199 217 233 219 222 235 234 223 221 222 223 241 260 265 260 247 241 252 256 259 276 271 249 260 265 258 267 273 284 303 333 51 86 120 123 174 222 171 177 178 176 178 171 175 181 176 175 177
318 297 268 240 221 216 223 237 316 317 301 290 275 258 245 226 220 216 203 194 164 167 167 158 169 178 180 195 188 180 201 176 167 202 205 199 203 194 211 228 222 225 236 229 218 209 216 220 218 222 211 207 230 244 228 218 207 214 232 239 253 269 273 269 268 275 283 278 286 303 334 82 129 139 145 171 183 171 164 160 165 171 164 168 177 178 174 172
314 291 260 232 229 226 225 234 260 292 295 274 256 243 234 238 234 216 210 186 146 160 152 149 167 177 186 201 179 173 202 171 166 195 197 198 211 201 207 222 231 241 248 248 251 219 220 219 202 211 202 179 207 232 239 258 247 213 219 228 247 257 253 269 273 267 282 306 318 314 331 117 179 146 144 143 143 145 136 136 143 145 155 163 172 182 178 172
316 286 229 212 233 232 220 219 228 263 282 264 250 247 230 217 223 240 227 127 127 151 144 152 171 173 193 207 170 175 219 189 170 196 199 200 211 208 207 207 218 238 250 249 254 238 261 263 170 187 192 177 204 226 239 269 278 231 216 220 237 248 252 265 253 255 289 299 312 346 21 276 148 158 174 118 113 121 117 113 119 131 150 161 166 181 189 180
324 278 204 211 228 227 210 210 215 237 255 258 250 241 233 239 252 270 275 131 149 159 147 156 178 177 191 204 163 171 222 228 183 192 200 211 217 213 218 209 198 213 234 250 255 247 286 37 136 168 193 184 203 225 219 239 266 268 253 239 245 314 303 262 233 233 282 274 292 82 104 279 135 157 175 112 100 105 115 120 131 137 145 156 164 172 190 194
261 226 217 215 210 203 200 198 197 217 238 259 260 256 270 289 296 311 297 213 152 155 158 162 184 191 187 192 164 167 200 211 188 193 193 204 216 213 217 220 199 204 219 242 281 299 308 147 149 170 195 177 192 223 213 214 233 243 266 308 318 313 303 289 280 286 269 279 331 333 154 227 180 145 79 95 110 126 124 128 139 136 137 151 160 162 183 191
279 253 241 208 179 173 182 184 192 215 236 253 257 265 273 275 282 288 276 234 141 152 183 182 181 206 204 190 166 171 188 181 169 196 202 187 187 200 216 216 189 208 225 225 257 298 298 259 180 164 177 175 185 213 216 213 227 249 305 357 307 281 312 330 290 268 254 202 301 258 126 36 273 71 60 90 132 132 116 111 121 126 127 141 158 171 177 168
273 268 237 162 157 164 168 175 196 220 239 249 252 260 249 234 246 262 269 257 176 168 197 180 156 215 234 195 150 167 194 188 160 186 215 191 161 190 222 225 176 192 233 225 222 261 270 265 200 151 160 183 185 198 217 213 227 278 309 312 281 286 326 297 265 281 286 204 256 254 112 23 310 93 133 180 104 100 99 101 111 105 84 110 149 164 158 145
253 273 146 143 157 163 159 171 206 223 235 251 264 265 257 235 210 211 250 258 224 184 231 199 150 198 236 188 146 161 200 206 173 174 198 198 193 189 194 218 196 179 208 228 231 257 249 232 283 180 161 174 190 195 217 219 204 211 238 244 235 222 218 240 254 265 254 125 231 283 111 83 288 210 152 103 58 74 76 81 114 137 124 134 145 122 126 138
262 293 143 152 160 158 157 179 215 225 238 251 260 259 270 299 271 180 191 237 255 270 303 300 195 185 203 187 158 153 188 219 190 169 175 197 234 223 154 177 222 176 181 221 227 245 245 204 262 238 170 182 177 174 217 236 224 203 206 223 226 223 226 227 242 269 1 69 204 234 168 125 272 245 116 83 53 63 66 67 101 117 115 116 101 82 101 146
262 307 145 158 165 165 171 208 217 225 242 247 261 263 273 326 286 234 170 201 268 287 263 270 223 179 164 195 181 150 169 223 188 165 215 202 214 235 120 161 223 173 166 221 221 232 273 265 253 236 215 227 150 151 203 229 234 233 222 234 251 255 253 251 243 89 46 349 304 255 183 117 359 12 82 88 79 70 64 56 72 79 72 67 67 55 64 125
238 334 140 159 174 181 200 241 225 230 246 251 263 260 257 236 232 230 170 178 227 261 243 239 183 171 157 177 196 158 158 211 171 179 233 190 125 61 97 174 215 175 164 213 209 206 257 296 272 254 263 281 92 141 229 251 253 247 213 237 261 262 272 295 284 156 138 188 216 228 233 89 39 46 64 73 82 79 68 61 69 74 65 55 55 36 19 15
294 308 157 166 186 201 228 251 243 269 279 284 278 254 244 229 212 204 176 175 196 217 228 256 89 166 164 167 192 161 142 217 182 178 237 156 92 76 111 175 209 196 182 197 175 164 185 225 256 248 259 259 135 154 279 295 277 259 204 241 270 279 267 274 280 246 198 180 168 157 206 257 293 75 89 90 88 78 77 84 79 73 62 49 49 38 20 11
306 276 176 169 191 213 244 266 295 303 282 292 286 266 248 225 233 252 181 169 195 191 176 196 185 191 160 148 179 156 142 258 252 164 237 179 108 118 135 183 214 195 146 52 25 161 184 200 220 221 254 247 190 230 246 254 278 282 279 259 264 274 259 241 261 264 237 159 159 151 162 201 200 169 135 114 97 77 73 76 69 67 65 52 49 48 31 27
311 261 125 164 194 219 247 262 276 271 266 278 273 274 265 211 189 257 223 172 188 187 181 197 182 186 154 144 178 170 158 210 281 159 210 164 108 118 135 187 215 93 65 30 347 267 191 203 239 227 238 251 246 244 223 222 250 262 280 270 249 256 259 246 254 259 117 165 181 148 156 184 192 173 135 100 90 89 74 70 69 70 72 66 62 68 67 63
289 314 22 318 241 238 248 251 246 250 347 6 309 286 275 215 158 187 238 204 198 189 192 186 155 160 174 153 178 187 169 171 130 163 222 112 105 119 137 197 195 64 50 325 255 269 242 207 244 237 237 251 248 228 215 227 243 240 244 252 248 254 260 256 261 273 345 278 348 126 186 183 174 166 119 98 90 91 80 74 77 80 79 80 69 59 112 147
262 306 358 313 301 269 270 286 259 254 71 65 293 284 280 229 153 173 210 188 192 58 40 163 154 167 165 142 184 188 176 171 136 152 239 121 142 148 141 215 181 104 130 215 170 265 280 214 232 239 234 246 254 247 234 231 242 243 238 242 243 243 249 261 265 260 261 266 173 185 203 164 129 109 91 74 47 77 88 83 82 85 80 70 38 26 46 58
325 341 312 296 298 262 265 290 279 262 148 136 251 288 292 245 165 325 3 43 132 72 56 224 161 125 120 100 57 68 27 305 133 151 238 125 145 149 146 206 173 129 194 216 160 203 280 259 257 268 252 243 252 257 251 236 235 236 234 244 251 245 242 263 272 280 314 313 264 185 142 111 109 102 92 76 46 68 87 81 69 73 68 49 35 31 27 17
347 334 330 308 307 281 267 261 263 261 171 152 197 268 284 251 156 100 12 326 190 122 171 208 90 88 100 90 93 101 336 274 203 130 32 43 53 93 118 212 164 137 191 232 157 175 225 188 228 271 274 257 257 264 260 250 251 254 247 245 257 261 252 264 293 314 333 329 339 33 80 95 100 98 99 91 68 65 68 63 57 52 47 41 29 21 18 3
339 317 321 306 300 293 281 270 274 274 215 162 197 159 287 262 162 122 159 209 231 63 128 113 56 60 83 84 95 108 123 289 236 106 86 92 203 246 88 229 240 161 173 210 173 182 214 232 224 249 269 269 270 271 266 258 252 252 254 254 259 264 258 205 18 1 353 356 16 30 47 66 87 119 119 96 73 67 62 59 58 45 35 35 26 18 7 349
345 329 329 307 283 289 290 5 295 264 210 282 250 160 206 259 68 69 98 181 131 21 54 74 48 17 58 86 52 37 6 349 354 14 98 160 209 209 159 204 259 289 158 187 201 197 228 265 276 290 302 307 298 284 278 275 261 246 254 272 272 273 287 33 58 45 29 15 28 46 59 56 359 30 91 82 74 72 71 67 64 49 34 26 23 21 11 3